Alma, MI

2:54 AM EST on November 13, 2019 (GMT -0500)
Gratiot Community

Weather History for KAMN - June, 2019

Change the Weather History Date:

Thursday, June 6, 2019

  Actual Average Record
Temperature  
Mean Temperature 66 °F -  
Max Temperature 76 °F 75 °F 93 °F (1999)
Min Temperature 56 °F 52 °F 32 °F (1998)
Cooling Degree Days 1    
Growing Degree Days 16 (Base 50)    
Moisture  
Dew Point 58 °F    
Average Humidity 78    
Maximum Humidity 94    
Minimum Humidity 55    
Precipitation  
Precipitation 0.00 in - - ()
Sea Level Pressure  
Sea Level Pressure 29.91 in    
Wind  
Wind Speed 3 mph (East)    
Max Wind Speed 7 mph    
Max Gust Speed -    
Visibility 8 miles    
Events      
Averages and records for this station are not official NWS values.
T = Trace of Precipitation, MM = Missing Value Source: NWS Daily Summary

Daily Weather History Graph

Daily Weather History Graph

Search for Another Location

Airport or City:

Astronomy

Jun. 06, 2019 Rise Set
Actual Time 5:59 AM EDT 9:15 PM EDT
Civil Twilight 5:24 AM EDT 9:51 PM EDT
Nautical Twilight 4:38 AM EDT 10:36 PM EDT
Astronomical Twilight 3:43 AM EDT 11:32 PM EDT
Moon 9:07 AM EDT (6/6) No Moon Set
Length of Visible Light 16h 26m
Length of Day
15h 16m
Waxing Crescent, 13% of the Moon is Illuminated
Jun 6
Waxing Crescent
Jun 10
First Quarter
Jun 17
Full
Jun 25
Last Quarter
Jul 2
New

Hourly Weather History & Observations

Time (EDT) Temp. Dew Point Humidity Pressure Visibility Wind Dir Wind Speed Gust Speed Precip Events Conditions
12:16 AM 60.4 °F 58.1 °F 92% 29.86 in 4.0 mi East 4.6 mph - N/A   Overcast
12:35 AM 60.4 °F 58.1 °F 92% 29.86 in 4.0 mi ENE 3.5 mph - N/A   Overcast
12:36 AM 60.4 °F 58.1 °F 92% 29.86 in 4.0 mi East 3.5 mph - N/A   Overcast
12:55 AM 60.1 °F 57.7 °F 92% 29.86 in 4.0 mi ENE 3.5 mph - N/A   Overcast
12:57 AM 59.9 °F 57.6 °F 92% 29.86 in 4.0 mi ENE 4.6 mph - N/A   Overcast
1:15 AM 59.9 °F 57.2 °F 91% 29.86 in 4.0 mi ENE 4.6 mph - N/A   Overcast
1:16 AM 59.7 °F 57.2 °F 91% 29.86 in 4.0 mi ENE 4.6 mph - N/A   Overcast
1:35 AM 59.2 °F 56.5 °F 91% 29.86 in 5.0 mi NE 5.8 mph - N/A   Overcast
1:36 AM 59.2 °F 56.5 °F 91% 29.85 in 5.0 mi NE 4.6 mph - N/A   Overcast
1:55 AM 59.0 °F 55.9 °F 90% 29.85 in 7.0 mi NNE 4.6 mph - N/A   Overcast
1:56 AM 59.0 °F 55.8 °F 89% 29.85 in 7.0 mi NNE 4.6 mph - N/A   Overcast
2:15 AM 58.6 °F 55.6 °F 90% 29.85 in 7.0 mi NE 3.5 mph - N/A   Overcast
2:36 AM 58.5 °F 55.4 °F 90% 29.85 in 7.0 mi NE 3.5 mph - N/A   Overcast
2:55 AM 58.5 °F 55.6 °F 90% 29.84 in 5.0 mi ENE 4.6 mph - N/A   Overcast
2:56 AM 58.5 °F 55.6 °F 90% 29.84 in 5.0 mi ENE 3.5 mph - N/A   Overcast
3:16 AM 58.3 °F 55.6 °F 91% 29.85 in 5.0 mi Calm Calm - N/A   Overcast
3:35 AM 58.1 °F 55.4 °F 91% 29.86 in 5.0 mi NNE 4.6 mph - N/A   Overcast
3:55 AM 57.9 °F 55.4 °F 91% 29.86 in 5.0 mi Calm Calm - N/A   Overcast
4:15 AM 57.6 °F 55.0 °F 91% 29.87 in 4.0 mi NE 3.5 mph - N/A   Overcast
4:16 AM 57.4 °F 55.0 °F 92% 29.87 in 4.0 mi NE 3.5 mph - N/A   Overcast
4:35 AM 57.2 °F 54.9 °F 92% 29.87 in 4.0 mi NE 3.5 mph - N/A   Overcast
4:36 AM 57.2 °F 54.7 °F 91% 29.87 in 4.0 mi NE 4.6 mph - N/A   Overcast
4:55 AM 56.8 °F 54.7 °F 92% 29.88 in 3.0 mi Calm Calm - N/A   Overcast
5:15 AM 57.2 °F 55.2 °F 93% 29.88 in 4.0 mi Calm Calm - N/A   Overcast
5:16 AM 57.2 °F 55.4 °F 94% 29.88 in 4.0 mi Calm Calm - N/A   Overcast
5:35 AM 57.2 °F 55.0 °F 92% 29.89 in 3.0 mi Calm Calm - N/A   Overcast
5:55 AM 57.2 °F 55.2 °F 93% 29.89 in 4.0 mi ESE 4.6 mph - N/A   Overcast
6:15 AM 57.4 °F 55.4 °F 93% 29.90 in 4.0 mi SE 3.5 mph - N/A   Overcast
6:35 AM 57.2 °F 55.0 °F 92% 29.91 in 3.0 mi SE 3.5 mph - N/A   Overcast
6:36 AM 57.2 °F 55.0 °F 92% 29.91 in 3.0 mi ESE 3.5 mph - N/A   Overcast
6:55 AM 57.4 °F 55.2 °F 92% 29.92 in 4.0 mi Calm Calm - N/A   Overcast
7:15 AM 57.6 °F 55.4 °F 92% 29.92 in 4.0 mi Calm Calm - N/A   Overcast
7:35 AM 58.1 °F 55.6 °F 91% 29.93 in 4.0 mi Calm Calm - N/A   Overcast
7:55 AM 58.3 °F 55.8 °F 91% 29.93 in 5.0 mi Calm Calm - N/A   Overcast
8:16 AM 59.0 °F 55.9 °F 90% 29.93 in 5.0 mi NNE 3.5 mph - N/A   Overcast
8:35 AM 59.4 °F 55.8 °F 88% 29.93 in 5.0 mi Calm Calm - N/A   Overcast
8:55 AM 60.1 °F 55.9 °F 86% 29.93 in 7.0 mi Calm Calm - N/A   Overcast
9:16 AM 60.8 °F 55.8 °F 83% 29.94 in 7.0 mi Calm Calm - N/A   Overcast
9:37 AM 61.7 °F 56.3 °F 82% 29.93 in 7.0 mi NNE 3.5 mph - N/A   Overcast
9:55 AM 62.6 °F 56.5 °F 80% 29.93 in 7.0 mi NE 4.6 mph - N/A   Overcast
9:56 AM 62.6 °F 56.5 °F 80% 29.93 in 7.0 mi NE 4.6 mph - N/A   Overcast
10:15 AM 63.5 °F 56.7 °F 78% 29.93 in 10.0 mi Calm Calm - N/A   Overcast
10:35 AM 64.2 °F 57.2 °F 78% 29.94 in 10.0 mi NE 3.5 mph - N/A   Mostly Cloudy
10:58 AM 65.7 °F 56.8 °F 73% 29.94 in 10.0 mi Calm Calm - N/A   Mostly Cloudy
11:16 AM 67.1 °F 58.1 °F 73% 29.94 in 10.0 mi ENE 4.6 mph - N/A   Mostly Cloudy
11:35 AM 66.7 °F 57.9 °F 73% 29.95 in 10.0 mi NE 4.6 mph - N/A   Overcast
11:55 AM 67.3 °F 58.1 °F 72% 29.94 in 10.0 mi Calm Calm - N/A   Overcast
12:19 PM 67.5 °F 58.3 °F 72% 29.94 in 10.0 mi East 3.5 mph - N/A   Overcast
12:37 PM 68.2 °F 57.9 °F 70% 29.94 in 10.0 mi Calm Calm - N/A   Overcast
12:55 PM 69.6 °F 58.8 °F 68% 29.94 in 10.0 mi NE 3.5 mph - N/A   Overcast
1:15 PM 69.8 °F 58.6 °F 68% 29.94 in 10.0 mi Calm Calm - N/A   Overcast
1:16 PM 69.8 °F 58.8 °F 68% 29.94 in 10.0 mi Calm Calm - N/A   Overcast
1:35 PM 70.0 °F 59.0 °F 68% 29.94 in 10.0 mi Calm Calm - N/A   Mostly Cloudy
1:40 PM 70.9 °F 59.5 °F 67% 29.94 in 10.0 mi Calm Calm - N/A   Mostly Cloudy
1:58 PM 71.2 °F 59.7 °F 67% 29.94 in 10.0 mi Calm Calm - N/A   Mostly Cloudy
2:16 PM 72.7 °F 59.2 °F 62% 29.94 in 10.0 mi East 4.6 mph - N/A   Mostly Cloudy
2:35 PM 72.7 °F 58.5 °F 61% 29.94 in 10.0 mi Calm Calm - N/A   Mostly Cloudy
2:36 PM 72.7 °F 58.8 °F 62% 29.94 in 10.0 mi ENE 3.5 mph - N/A   Mostly Cloudy
2:55 PM 73.9 °F 59.2 °F 60% 29.93 in 10.0 mi Calm Calm - N/A   Mostly Cloudy
3:19 PM 73.6 °F 57.4 °F 57% 29.93 in 10.0 mi Calm Calm - N/A   Mostly Cloudy
3:37 PM 73.6 °F 57.7 °F 58% 29.93 in 10.0 mi Calm Calm - N/A   Scattered Clouds
3:55 PM 75.4 °F 59.2 °F 57% 29.93 in 10.0 mi ESE 3.5 mph - N/A   Scattered Clouds
4:15 PM 75.6 °F 59.5 °F 57% 29.93 in 10.0 mi ENE 3.5 mph - N/A   Scattered Clouds
4:35 PM 75.7 °F 59.0 °F 56% 29.93 in 10.0 mi Calm Calm - N/A   Scattered Clouds
4:58 PM 75.0 °F 57.9 °F 55% 29.92 in 10.0 mi Calm Calm - N/A   Mostly Cloudy
5:16 PM 75.6 °F 58.3 °F 55% 29.92 in 10.0 mi Calm Calm - N/A   Mostly Cloudy
5:35 PM 76.1 °F 59.9 °F 57% 29.92 in 10.0 mi ESE 6.9 mph - N/A   Scattered Clouds
5:55 PM 74.8 °F 59.5 °F 59% 29.92 in 10.0 mi ESE 6.9 mph - N/A   Mostly Cloudy
5:56 PM 74.8 °F 59.5 °F 59% 29.92 in 10.0 mi East 5.8 mph - N/A   Mostly Cloudy
6:19 PM 75.0 °F 59.7 °F 59% 29.92 in 10.0 mi ESE 5.8 mph - N/A   Overcast
6:37 PM 75.6 °F 59.5 °F 57% 29.91 in 10.0 mi ESE 6.9 mph - N/A   Mostly Cloudy
6:55 PM 75.4 °F 61.0 °F 61% 29.91 in 10.0 mi SSE 3.5 mph - N/A   Scattered Clouds
7:15 PM 75.2 °F 59.5 °F 58% 29.91 in 10.0 mi SE 4.6 mph - N/A   Clear
7:35 PM 75.2 °F 59.0 °F 57% 29.91 in 10.0 mi ESE 4.6 mph - N/A   Clear
7:58 PM 74.7 °F 59.5 °F 59% 29.92 in 10.0 mi Calm Calm - N/A   Clear
8:16 PM 73.8 °F 60.1 °F 62% 29.92 in 10.0 mi ESE 4.6 mph - N/A   Clear
8:35 PM 72.7 °F 59.5 °F 63% 29.92 in 10.0 mi SE 4.6 mph - N/A   Clear
8:55 PM 71.2 °F 59.9 °F 67% 29.92 in 10.0 mi SE 3.5 mph - N/A   Clear
8:56 PM 71.1 °F 59.9 °F 68% 29.92 in 10.0 mi SE 3.5 mph - N/A   Clear
9:19 PM 70.3 °F 60.1 °F 70% 29.93 in 10.0 mi Calm Calm - N/A   Clear
9:37 PM 68.9 °F 60.3 °F 74% 29.93 in 10.0 mi SE 3.5 mph - N/A   Clear
9:55 PM 68.2 °F 60.6 °F 77% 29.93 in 10.0 mi Calm Calm - N/A   Clear
9:56 PM 68.2 °F 60.8 °F 77% 29.93 in 10.0 mi Calm Calm - N/A   Clear
10:15 PM 67.3 °F 59.9 °F 77% 29.94 in 10.0 mi SSE 3.5 mph - N/A   Clear
10:35 PM 68.0 °F 59.9 °F 75% 29.94 in 10.0 mi SSE 3.5 mph - N/A   Clear
10:58 PM 66.7 °F 59.9 °F 79% 29.94 in 10.0 mi Calm Calm - N/A   Clear
11:16 PM 65.3 °F 59.4 °F 81% 29.94 in 10.0 mi Calm Calm - N/A   Clear
11:35 PM 65.5 °F 59.7 °F 82% 29.94 in 10.0 mi Calm Calm - N/A   Clear
11:36 PM 65.3 °F 59.4 °F 81% 29.94 in 10.0 mi Calm Calm - N/A   Clear
11:55 PM 62.2 °F 58.1 °F 86% 29.94 in 10.0 mi Calm Calm - N/A   Clear
11:56 PM 62.2 °F 57.9 °F 86% 29.94 in 10.0 mi Calm Calm - N/A   Clear